Location: Newark
(44.3449°N, 4.8694°E)
Time: 20:15:20
(UTC+00:00)

Envisat - Pass Details

Date: 24 January 2020
Orbit: 764 x 766 km, 98.1° (Epoch: 19 February)

Event Time Altitude Azimuth Distance (km) Brightness Sun altitude
Rises 05:09:24 0° 29° (NNE) 3,241 6.5 -20.9°
Reaches altitude 10° 05:12:32 10° 49° (NE) 2,309 6.0 -20.4°
Maximum altitude 05:15:50 17° 90° (E) 1,848 6.0 -19.8°
Drops below altitude 10° 05:19:08 10° 131° (SE) 2,297 6.3 -19.2°
Sets 05:22:12 0° 151° (SSE) 3,217 6.8 -18.7°
